Weather in Bolshaya Yega

Russia / Samara Oblast     53°33′29″N   51°59′09″E
temp.,
°C
wind,
m/s
gust,
m/s
humid.,
%
clouds,
%
prec.,
mm/h
press.,
hPa
HPBL,
m
4 march, thu
thu401:00−8wnw469599 0.1 1006125
04:00−11w469796 0.1 1007125
07:00−13wsw489889 0.0 1006140
10:00−8sw6129493 0.1 1006365
13:00−5sw71294100 0.3 1004589
16:00−3sw91493100 0.6 1002928
19:00−1sw81697100 1.9 999980
22:000wsw101697100 3.3 10001020
5 march, fri
fri501:00−1wsw91596100 1.0 1000804
04:00−1sw71397100 2.1 1001746
07:00−2sw61396100 0.8 1001635
10:00−1wsw51096100 2.6 1001639
13:00−2n4697100 2.3 1002346
16:00−2nnw4693100 2.8 1004515
19:00−6nw3592100 0.1 1007111
22:00−12nw229172 0.1 101121
6 march, sat
sat601:00−14wnw12900 0.0 101221
04:00−15wsw129325 0.0 101420
07:00−16sw229381 0.0 101420
10:00−11sw248971 0.0 1015172
13:00−8wsw359595 0.1 1014285
16:00−7w349498 0.1 1014365
19:00−11wnw3393100 0.0 101343
22:00−14nnw3694100 0.0 101397
7 march, sun
sun701:00−17nnw239485 0.0 101320
04:00−20nnw239759 0.0 101320
07:00−22nw22980 0.0 101420
10:00−17wnw23920 0.0 1015156
13:00−13wsw349033 0.0 1015279
16:00−12ssw379258 0.0 1014285
19:00−15ssw489491 0.0 1013152
22:00−14s4109692 0.1 1012267
8 march, mon
mon801:00−10ssw71394100 0.2 1008490
04:00−7ssw81694100 0.8 1004816
07:00−6sw91694100 1.1 1003883
10:00−5wnw61179100 2.4 1004836
13:00−5sw367723 0.0 1006498
16:00−4s5109654 0.2 1005558
19:00−3ssw91595100 2.0 1001969
22:00−2sw111795100 3.2 10001215